• In Uzbekistan
  • List of Countries
  • For 7 days
  • Water Temperature
  • Satellite Maps
  • Weather Map
  • Weather Widgets
  • user-avatar
    Login

    Hourly Weather Rio Branco

    Today, 22 October, Sunday

    Time Temperature Precipitation Wind Pressure Humidity
    00:00 +26°C° 0.2 mm 1 mps 745 mmHg 82%
    01:00 +24°C° 0.2 mm 0 mps 744 mmHg 87%
    02:00 +24°C° 0 mm 0 mps 744 mmHg 88%
    03:00 +23°C° 0 mm 0 mps 744 mmHg 89%
    04:00 +23°C° 0 mm 0 mps 744 mmHg 90%
    05:00 +26°C° 0 mm 1 mps 745 mmHg 86%
    06:00 +27°C° 0 mm 1 mps 745 mmHg 83%
    07:00 +28°C° 0 mm 1 mps 746 mmHg 79%
    08:00 +31°C° 0 mm 1 mps 746 mmHg 69%
    09:00 +33°C° 0 mm 1 mps 747 mmHg 58%
    10:00 +35°C° 0 mm 1 mps 747 mmHg 47%
    11:00 +36°C° 0 mm 1 mps 746 mmHg 45%
    12:00 +36°C° 0 mm 1 mps 745 mmHg 43%
    13:00 +34°C° 0 mm 0 mps 744 mmHg 42%
    14:00 +34°C° 0 mm 0 mps 744 mmHg 42%
    15:00 +36°C° 0 mm 1 mps 743 mmHg 43%
    16:00 +36°C° 0 mm 1 mps 742 mmHg 43%
    17:00 +34°C° 0 mm 1 mps 743 mmHg 50%
    18:00 +30°C° 0 mm 0 mps 743 mmHg 56%
    19:00 +27°C° 0 mm 0 mps 744 mmHg 63%
    20:00 +29°C° 0.1 mm 1 mps 744 mmHg 68%
    21:00 +28°C° 0.1 mm 1 mps 745 mmHg 73%
    22:00 +27°C° 0.1 mm 1 mps 746 mmHg 78%
    23:00 +27°C° 0.7 mm 1 mps 745 mmHg 83%

    Tomorrow, 23 October, Monday

    Time Temperature Precipitation Wind Pressure Humidity
    00:00 +26°C° 0.7 mm 1 mps 745 mmHg 87%
    01:00 +25°C° 0.7 mm 1 mps 745 mmHg 92%
    02:00 +25°C° 0.5 mm 1 mps 745 mmHg 93%
    03:00 +25°C° 0.5 mm 1 mps 745 mmHg 95%
    04:00 +25°C° 0.5 mm 1 mps 745 mmHg 96%
    05:00 +25°C° 0 mm 1 mps 745 mmHg 95%
    06:00 +26°C° 0 mm 1 mps 746 mmHg 94%
    07:00 +26°C° 0 mm 1 mps 746 mmHg 93%
    08:00 +28°C° 0 mm 1 mps 747 mmHg 86%
    09:00 +29°C° 0 mm 1 mps 747 mmHg 79%
    10:00 +30°C° 0 mm 1 mps 747 mmHg 72%
    11:00 +31°C° 0.1 mm 1 mps 746 mmHg 68%
    12:00 +34°C° 0.1 mm 2 mps 745 mmHg 63%
    13:00 +35°C° 0.1 mm 2 mps 744 mmHg 58%
    14:00 +33°C° 0.8 mm 1 mps 743 mmHg 65%
    15:00 +32°C° 0.8 mm 1 mps 743 mmHg 71%
    16:00 +29°C° 0.8 mm 0 mps 742 mmHg 77%
    17:00 +28°C° 0.3 mm 0 mps 743 mmHg 82%
    18:00 +26°C° 0.3 mm 0 mps 744 mmHg 87%
    19:00 +25°C° 0.3 mm 0 mps 744 mmHg 93%
    20:00 +24°C° 1.2 mm 0 mps 745 mmHg 93%
    21:00 +26°C° 1.2 mm 1 mps 745 mmHg 94%
    22:00 +26°C° 1.2 mm 1 mps 746 mmHg 95%
    23:00 +26°C° 0.6 mm 1 mps 746 mmHg 96%

    Day after tomorrow, 24 October, Tuesday

    Time Temperature Precipitation Wind Pressure Humidity
    00:00 +25°C° 0.6 mm 1 mps 745 mmHg 97%
    01:00 +25°C° 0.6 mm 1 mps 745 mmHg 97%
    02:00 +25°C° 0.2 mm 1 mps 745 mmHg 98%
    03:00 +25°C° 0.2 mm 1 mps 744 mmHg 98%
    04:00 +25°C° 0.2 mm 1 mps 744 mmHg 98%
    05:00 +23°C° 0 mm 0 mps 745 mmHg 96%
    06:00 +24°C° 0 mm 0 mps 745 mmHg 94%
    07:00 +25°C° 0 mm 0 mps 746 mmHg 91%
    08:00 +28°C° 0 mm 0 mps 746 mmHg 75%
    09:00 +31°C° 0 mm 0 mps 746 mmHg 59%
    10:00 +37°C° 0 mm 1 mps 746 mmHg 43%
    11:00 +37°C° 0 mm 1 mps 745 mmHg 41%
    12:00 +37°C° 0 mm 1 mps 744 mmHg 39%
    13:00 +39°C° 0 mm 1 mps 743 mmHg 37%
    14:00 +37°C° 0 mm 1 mps 742 mmHg 41%
    15:00 +35°C° 0 mm 1 mps 741 mmHg 45%
    16:00 +34°C° 0 mm 1 mps 741 mmHg 49%
    17:00 +33°C° 0 mm 1 mps 742 mmHg 54%
    18:00 +31°C° 0 mm 1 mps 742 mmHg 58%
    19:00 +30°C° 0 mm 1 mps 743 mmHg 63%
    20:00 +29°C° 0.2 mm 1 mps 743 mmHg 69%
    21:00 +27°C° 0.2 mm 1 mps 744 mmHg 75%
    22:00 +26°C° 0.2 mm 1 mps 744 mmHg 81%
    23:00 +26°C° 0.3 mm 1 mps 744 mmHg 84%

    25 October, Wednesday

    Time Temperature Precipitation Wind Pressure Humidity
    00:00 +25°C° 0.3 mm 1 mps 744 mmHg 88%
    01:00 +25°C° 0.3 mm 1 mps 744 mmHg 91%
    02:00 +24°C° 0.3 mm 1 mps 744 mmHg 92%
    03:00 +24°C° 0.3 mm 1 mps 744 mmHg 93%
    04:00 +24°C° 0.3 mm 1 mps 744 mmHg 93%
    05:00 +25°C° 0.9 mm 1 mps 745 mmHg 92%
    06:00 +25°C° 0.9 mm 1 mps 745 mmHg 91%
    07:00 +26°C° 0.9 mm 1 mps 746 mmHg 90%
    08:00 +28°C° 0 mm 1 mps 746 mmHg 80%
    09:00 +30°C° 0 mm 1 mps 746 mmHg 70%
    10:00 +32°C° 0 mm 1 mps 746 mmHg 60%
    11:00 +32°C° 0 mm 1 mps 745 mmHg 61%
    12:00 +32°C° 0 mm 1 mps 744 mmHg 62%
    13:00 +32°C° 0 mm 1 mps 743 mmHg 62%
    14:00 +32°C° 0 mm 1 mps 743 mmHg 59%
    15:00 +33°C° 0 mm 1 mps 742 mmHg 56%
    16:00 +34°C° 0 mm 1 mps 742 mmHg 53%
    17:00 +32°C° 0 mm 1 mps 742 mmHg 59%
    18:00 +30°C° 0 mm 1 mps 742 mmHg 65%
    19:00 +28°C° 0 mm 1 mps 743 mmHg 70%
    20:00 +28°C° 0 mm 1 mps 743 mmHg 72%
    21:00 +25°C° 0 mm 0 mps 743 mmHg 73%
    22:00 +25°C° 0 mm 0 mps 744 mmHg 74%
    23:00 +24°C° 0 mm 0 mps 744 mmHg 75%

    26 October, Thursday

    Time Temperature Precipitation Wind Pressure Humidity
    00:00 +24°C° 0 mm 0 mps 744 mmHg 75%
    01:00 +24°C° 0 mm 0 mps 744 mmHg 75%
    02:00 +25°C° 0.1 mm 1 mps 744 mmHg 79%
    03:00 +25°C° 0.1 mm 1 mps 744 mmHg 83%
    04:00 +24°C° 0.1 mm 1 mps 744 mmHg 87%
    05:00 +26°C° 0 mm 1 mps 745 mmHg 82%
    06:00 +27°C° 0 mm 1 mps 745 mmHg 77%
    07:00 +28°C° 0 mm 1 mps 746 mmHg 72%
    08:00 +31°C° 0 mm 1 mps 746 mmHg 63%
    09:00 +34°C° 0 mm 2 mps 746 mmHg 54%
    10:00 +37°C° 0 mm 2 mps 746 mmHg 45%
    11:00 +37°C° 0 mm 2 mps 745 mmHg 42%
    12:00 +37°C° 0 mm 1 mps 744 mmHg 38%
    13:00 +39°C° 0 mm 1 mps 743 mmHg 35%
    14:00 +37°C° 0 mm 1 mps 742 mmHg 38%
    15:00 +37°C° 0 mm 1 mps 742 mmHg 41%
    16:00 +36°C° 0 mm 1 mps 741 mmHg 43%
    17:00 +34°C° 0 mm 1 mps 742 mmHg 49%
    18:00 +32°C° 0 mm 1 mps 742 mmHg 54%
    19:00 +30°C° 0 mm 1 mps 743 mmHg 59%
    20:00 +30°C° 0 mm 1 mps 743 mmHg 61%
    21:00 +29°C° 0 mm 1 mps 744 mmHg 64%
    22:00 +28°C° 0 mm 1 mps 744 mmHg 66%
    23:00 +28°C° 0 mm 1 mps 744 mmHg 68%

    27 October, Friday

    Time Temperature Precipitation Wind Pressure Humidity
    00:00 +27°C° 0 mm 1 mps 743 mmHg 71%
    01:00 +27°C° 0 mm 1 mps 743 mmHg 73%
    02:00 +27°C° 0 mm 1 mps 743 mmHg 74%
    03:00 +26°C° 0 mm 1 mps 743 mmHg 76%
    04:00 +26°C° 0 mm 1 mps 743 mmHg 77%
    05:00 +28°C° 0 mm 1 mps 744 mmHg 73%
    06:00 +29°C° 0 mm 1 mps 744 mmHg 68%
    07:00 +30°C° 0 mm 1 mps 745 mmHg 64%
    08:00 +33°C° 0 mm 1 mps 745 mmHg 56%
    09:00 +35°C° 0 mm 1 mps 744 mmHg 47%
    10:00 +38°C° 0 mm 2 mps 744 mmHg 39%
    11:00 +37°C° 0 mm 1 mps 743 mmHg 40%
    12:00 +37°C° 0 mm 1 mps 742 mmHg 41%
    13:00 +37°C° 0 mm 1 mps 741 mmHg 42%
    14:00 +37°C° 0 mm 1 mps 741 mmHg 42%
    15:00 +37°C° 0 mm 1 mps 740 mmHg 42%
    16:00 +36°C° 0 mm 1 mps 740 mmHg 42%
    17:00 +34°C° 0 mm 1 mps 740 mmHg 48%
    18:00 +33°C° 0 mm 1 mps 741 mmHg 54%
    19:00 +31°C° 0 mm 1 mps 741 mmHg 60%
    20:00 +30°C° 0 mm 1 mps 741 mmHg 61%
    21:00 +30°C° 0 mm 1 mps 742 mmHg 63%
    22:00 +29°C° 0 mm 1 mps 742 mmHg 65%
    23:00 +29°C° 0 mm 1 mps 742 mmHg 66%
    Show more